TIARET current weather conditions

sailwx.info

Air temperature 15.0° C
Visibility: greater than 5.4 NM
Dewpoint 9.0° C

Last reported at 2014-Oct-22 20:00 UTC.
Time now 2014-Oct-22 21:54 UTC

Location: N 35°15' E 001°26'.
View on Google Maps.

See reports from other nearby stations

  
Tides and Currents Weather Stations Pressure Air Temp Water Temp Dewpoint Dewpoint Depression Visibility Wind Speed Wind Dir Waves Ship Positions
date/time (UTC)wind fromknots sea level pressurealtimeterstation pressurevisibilityair tempwater tempwave heightnotes
2014-Oct-22 20:00 5.415.0
2014-Oct-22 19:00 300 8 5.416.0
2014-Oct-22 18:00 320 4 5.417.0
2014-Oct-22 17:00 320 12 5.419.0
2014-Oct-22 16:00 330 13 5.420.0
2014-Oct-22 15:00 300 16 5.421.0
2014-Oct-22 14:00 290 17 5.422.0
2014-Oct-22 13:00 300 10 22.0
2014-Oct-22 12:00 290 11 21.0
2014-Oct-22 11:00 290 13 21.0
2014-Oct-22 10:00 290 15 20.0
2014-Oct-22 09:00 280 16 20.0
2014-Oct-22 08:00 270 10 18.0
2014-Oct-22 07:00 260 10 15.0
2014-Oct-22 06:00 290 10 14.0
2014-Oct-22 05:00 260 4 14.0
2014-Oct-22 04:00 260 8 14.0
2014-Oct-22 03:00 230 8 14.0
2014-Oct-22 02:00 230 10 15.0
2014-Oct-22 01:00 250 8 15.0
2014-Oct-22 00:00 240 10 15.0
2014-Oct-21 23:00 15.0
2014-Oct-21 22:00 16.0
2014-Oct-21 21:00 280 6 17.0
2014-Oct-21 20:00 17.0
2014-Oct-21 19:00 280 8 18.0
2014-Oct-21 18:00 290 8 20.0
2014-Oct-21 17:00 300 12 23.0
2014-Oct-21 16:00 320 10 26.0
2014-Oct-21 15:00 310 9 27.0
2014-Oct-21 14:00 320 8 28.0
2014-Oct-21 13:00 27.0
2014-Oct-21 12:00 060 4 27.0
2014-Oct-21 11:00 070 7 25.0
2014-Oct-21 10:00 030 8 25.0
2014-Oct-21 09:00 21.0
2014-Oct-21 08:00 16.0
2014-Oct-21 07:00 220 6 14.0
2014-Oct-21 06:00 250 6 14.0
2014-Oct-21 05:00 14.0
2014-Oct-21 04:00 240 7 14.0
2014-Oct-21 03:00 240 6 15.0
2014-Oct-21 02:00 240 8 12.0
2014-Oct-21 01:00 12.0
2014-Oct-21 00:00 170 6 13.0
2014-Oct-20 23:00 170 6 14.0
2014-Oct-20 22:00 15.0
2014-Oct-20 21:00 170 8 16.0